Regional Weather Roundup
Issued by NWS Sterling, VA

Home | Current Version | Previous Version | Graphics & Text | Print | Product List | Glossary On
Versions: 1 2 3 4 5 6 7 8 9 10 11 12 13 14 15 16 17 18 19 20 21 22 23 24 25 26 27 28 29 30 31 32 33 34 35 36 37 38 39 40 41 42 43 44 45 46 47 48 49 50
000
ASUS41 KLWX 281610
RWRLWX

REGIONAL WEATHER ROUNDUP
NATIONAL WEATHER SERVICE BALTIMORE MD/WASHINGTON DC
1100 AM EST WED JAN 28 2015

Note: "FAIR" indicates few or no clouds below 12,000 feet
with no significant weather and/or obstructions to visibility.
 TC=TEMPERATURE CELSIUS

 * =Non NWS site. Station does not report precipitation (e.g. rain,
    snow, etc.), thunder, or fog.

DCZ001-MDZ009-015-VAZ040>042-051-053>054-281700-
WASHINGTON METRO

CITY           SKY/WX    TMP DP  RH WIND       PRES   REMARKS
WASHINGTON NAT SUNNY     32   7  35 NW17G23   30.26R WCI  21
DULLES         SUNNY     27   8  44 N13G26    30.25R WCI  16
ANDREWS AFB    SUNNY     29   6  38 NW15      30.22R WCI  17
FT BELVOIR     SUNNY     29   7  38 NW18G26   30.26R WCI  17
QUANTICO       SUNNY     31   6  35 N16G25    30.28R WCI  20
COLLEGE PARK*  SUNNY     32   7  34 NW12      30.24R WCI  23
LEESBURG*      SUNNY     28  12  50 N14       30.26S WCI  17
GAITHERSBURG*  SUNNY     25   7  46 NW8G16    30.26R WCI  16

$$

MDZ006>007-011-014-281700-
BALTIMORE METRO

CITY           SKY/WX    TMP DP  RH WIND       PRES   REMARKS
BWI AIRPORT    SUNNY     30   4  33 NW9G21    30.21R WCI  22
MD SCIENCE CTR   N/A     28   0  29 MISG      30.20S
MARTIN STATE   SUNNY     32   5  32 NW12G22   30.22R WCI  23
ANNAPOLIS      SUNNY     30   8  39 NW16      30.21S WCI  19
FORT MEADE*    SUNNY     32   9  37 NW9G17    30.25R WCI  24

$$

MDZ012-015-019>023-281700-
MARYLAND EASTERN SHORE

CITY           SKY/WX    TMP DP  RH WIND       PRES   REMARKS
OCEAN CITY     SUNNY     31   8  38 NW16G23   30.14S WCI  20
SALISBURY      SUNNY     33   7  33 NW14      30.17R WCI  23
BAY BRIDGE AP*   N/A     30   5  34 NW13G20   30.21S WCI  20
CAMBRIDGE*     SUNNY     32   9  37 NW14G23   30.19S WCI  22
EASTON*        SUNNY     30   9  40 NW18G24   30.23R WCI  18

$$

MDZ017>025-281700-
SOUTHERN MARYLAND

CITY           SKY/WX    TMP DP  RH WIND       PRES   REMARKS
PATUXENT RIVER SUNNY     30   8  39 NW16      30.21S WCI  19
ST INIGOES     SUNNY     31   6  35 NW9       30.21S WCI  23
LEONARDTOWN*   SUNNY     32   5  32 N3        30.23S

$$

MDZ003>005-281700-
NORTH CENTRAL MARYLAND

CITY           SKY/WX    TMP DP  RH WIND       PRES   REMARKS
FREDERICK*     NOT AVBL
HAGERSTOWN APT SUNNY     25   5  42 NW17      30.24R WCI  12
WESTMINSTER*   SUNNY     25   1  36 NW13      30.19S WCI  13

$$

MDZ501>502-281700-
WESTERN MARYLAND

CITY           SKY/WX    TMP DP  RH WIND       PRES   REMARKS
OAKLAND*       SUNNY     16 N/A N/A CALM      30.16R
CUMBERLAND*    SUNNY     28   3  34 N14       30.33R WCI  17

$$

VAZ025>031-281700-
SHENANDOAH VALLEY

CITY           SKY/WX    TMP DP  RH WIND       PRES   REMARKS
WINCHESTER*    SUNNY     30   3  31 NW17G24   30.25S WCI  18
FRONT ROYAL*   FAIR      32   7  34 NW8       30.24R WCI  25
LURAY*         FAIR      34   7  32 NW8       30.23S WCI  27
NEW MARKET*    FAIR      28  10  46 CALM      30.25R
STAUNTON*      SUNNY     31   8  38 CALM      30.25S
WAYNESBORO*    FAIR      29  12  49 NW5       30.21S

$$

WVZ021-048>050-054>055-281700-
EASTERN WEST VIRGINIA PANHANDLE

CITY           SKY/WX    TMP DP  RH WIND       PRES   REMARKS
MARTINSBURG    SUNNY     28   5  37 NW14      30.26S WCI  17
PETERSBURG*    SUNNY     24  15  70 CALM      30.29S

$$

VAZ036>039-050-281700-
CENTRAL FOOTHILLS

CITY           SKY/WX    TMP DP  RH WIND       PRES   REMARKS
CHARLOTTESVILL SUNNY     36  -1  21 NW10      30.22R WCI  28
CULPEPER*      SUNNY     36   3  25 N13G20    30.25R WCI  27
ORANGE*        SUNNY     34  10  37 CALM      30.26R
GORDONSVILLE*  FAIR      32  11  41 CALM      30.24R
WARRENTON*     FAIR      34  13  42 N15G22    30.24R WCI  24

$$

VAZ055>057-281700-
NORTH AND CENTRAL PIEDMONT

CITY           SKY/WX    TMP DP  RH WIND       PRES   REMARKS
FREDERICKSBRG* SUNNY     34   7  32 NW14G21   30.25S WCI  24
STAFFORD*      SUNNY     32   6  32 NW14G21   30.29S WCI  22

$$

NCZ024-NYZ072-PAZ021-071-VAZ022-071-281700-
OTHER REGIONAL OBSERVATIONS

CITY           SKY/WX    TMP DP  RH WIND       PRES   REMARKS
NEW YORK CITY  SUNNY     24   4  42 NW9       30.07R WCI  14
PHILADELPHIA   SUNNY     27   1  32 NW21      30.15R WCI  13
PITTSBURGH     MOSUNNY   14   9  80 NW6       30.34R
ROANOKE        SUNNY     34  13  41 NW12      30.27R WCI  25
RICHMOND       SUNNY     35   7  31 N16       30.24R WCI  25
RALEIGH        SUNNY     37  13  37 NE8       30.26R

$$

ANZ530>537-281700-
MARINE OBSERVATIONS

STATION/POSITION TIME  TEMP    WIND        PRES
                       AIR SEA DIR/SP/G
                 (UTC) (F)     (DEG/KT/KT) (MB)
THOMAS PT LIGHT  1600   29 36  320/ 13/ 18 1024.0R
BALT KEY BRIDGE  1600   28     300/ 17/ 19 1022.7F
COVE POINT       1600   26     350/ 17/ 20 1022.9R
LEWISETTA        1600   29 36  330/ 12/ 17 1023.2F
SOLOMONS ISLAND  1600      37                N/A
PINEY POINT      1600          340/ 17/ 20   N/A

$$




USA.gov is the U.S. government's official web portal to all federal, state and local government web resources and services.